Year,Month,Day,Hour,Minute,Value (Times are PST for temperature in C)
2015,04,28,00,00,11.50
2015,04,28,00,01,11.50
2015,04,28,00,02,11.50
2015,04,28,00,03,11.50
2015,04,28,00,04,11.50
2015,04,28,00,05,11.50
2015,04,28,00,06,11.50
2015,04,28,00,07,11.50
2015,04,28,00,08,11.50
2015,04,28,00,09,11.50
2015,04,28,00,10,11.50
2015,04,28,00,11,11.50
2015,04,28,00,12,11.60
2015,04,28,00,13,11.60
2015,04,28,00,14,11.50
2015,04,28,00,15,11.60
2015,04,28,00,16,11.50
2015,04,28,00,17,11.50
2015,04,28,00,18,11.50
2015,04,28,00,19,11.50
2015,04,28,00,20,11.50
2015,04,28,00,21,11.50
2015,04,28,00,22,11.50
2015,04,28,00,23,11.50
2015,04,28,00,24,11.50
2015,04,28,00,25,11.50
2015,04,28,00,26,11.40
2015,04,28,00,27,11.40
2015,04,28,00,28,11.40
2015,04,28,00,29,11.40
2015,04,28,00,30,11.40
2015,04,28,00,31,11.30
2015,04,28,00,32,11.30
2015,04,28,00,33,11.30
2015,04,28,00,34,11.30
2015,04,28,00,35,11.30
2015,04,28,00,36,11.30
2015,04,28,00,37,11.30
2015,04,28,00,38,11.30
2015,04,28,00,39,11.30
2015,04,28,00,40,11.30
2015,04,28,00,41,11.40
2015,04,28,00,42,11.40
2015,04,28,00,43,11.40
2015,04,28,00,44,11.40
2015,04,28,00,45,11.40
2015,04,28,00,46,11.40
2015,04,28,00,47,11.40
2015,04,28,00,48,11.40
2015,04,28,00,49,11.40
2015,04,28,00,50,11.40
2015,04,28,00,51,11.40
2015,04,28,00,52,11.40
2015,04,28,00,53,11.40
2015,04,28,00,54,11.50
2015,04,28,00,55,11.50
2015,04,28,00,56,11.50
2015,04,28,00,57,11.50
2015,04,28,00,58,11.60
2015,04,28,00,59,11.70
2015,04,28,01,00,11.70
2015,04,28,01,01,11.70
2015,04,28,01,02,11.70
2015,04,28,01,03,11.80
2015,04,28,01,04,11.80
2015,04,28,01,05,11.80
2015,04,28,01,06,11.80
2015,04,28,01,07,11.80
2015,04,28,01,08,11.80
2015,04,28,01,09,11.80
2015,04,28,01,10,11.90
2015,04,28,01,11,11.90
2015,04,28,01,12,12.00
2015,04,28,01,13,12.00
2015,04,28,01,14,12.10
2015,04,28,01,15,12.10
2015,04,28,01,16,12.10
2015,04,28,01,17,12.10
2015,04,28,01,18,12.10
2015,04,28,01,19,12.10
2015,04,28,01,20,12.10
2015,04,28,01,21,12.10
2015,04,28,01,22,12.10
2015,04,28,01,23,12.10
2015,04,28,01,24,12.10
2015,04,28,01,25,12.00
2015,04,28,01,26,12.10
2015,04,28,01,27,12.10
2015,04,28,01,28,12.10
2015,04,28,01,29,12.10
2015,04,28,01,30,12.20
2015,04,28,01,31,12.20
2015,04,28,01,32,12.30
2015,04,28,01,33,12.30
2015,04,28,01,34,12.40
2015,04,28,01,35,12.50
2015,04,28,01,36,12.60
2015,04,28,01,37,12.70
2015,04,28,01,38,12.80
2015,04,28,01,39,12.80
2015,04,28,01,40,12.90
2015,04,28,01,41,13.00
2015,04,28,01,42,13.00
2015,04,28,01,43,13.10
2015,04,28,01,44,13.10
2015,04,28,01,45,13.10
2015,04,28,01,46,13.10
2015,04,28,01,47,13.20
2015,04,28,01,48,13.20
2015,04,28,01,49,13.30
2015,04,28,01,50,13.30
2015,04,28,01,51,13.30
2015,04,28,01,52,13.40
2015,04,28,01,53,13.40
2015,04,28,01,54,13.40
2015,04,28,01,55,13.40
2015,04,28,01,56,13.50
2015,04,28,01,57,13.50
2015,04,28,01,58,13.50
2015,04,28,01,59,13.50
2015,04,28,02,00,13.50
2015,04,28,02,01,13.50
2015,04,28,02,02,13.60
2015,04,28,02,03,13.60
2015,04,28,02,04,13.60
2015,04,28,02,05,13.60
2015,04,28,02,06,13.60
2015,04,28,02,07,13.60
2015,04,28,02,08,13.60
2015,04,28,02,09,13.60
2015,04,28,02,10,13.60
2015,04,28,02,11,13.60
2015,04,28,02,12,13.60
2015,04,28,02,13,13.60
2015,04,28,02,14,13.60
2015,04,28,02,15,13.60
2015,04,28,02,16,13.60
2015,04,28,02,17,13.60
2015,04,28,02,18,13.60
2015,04,28,02,19,13.60
2015,04,28,02,20,13.60
2015,04,28,02,21,13.50
2015,04,28,02,22,13.50
2015,04,28,02,23,13.50
2015,04,28,02,24,13.50
2015,04,28,02,25,13.50
2015,04,28,02,26,13.50
2015,04,28,02,27,13.50
2015,04,28,02,28,13.50
2015,04,28,02,29,13.50
2015,04,28,02,30,13.50
2015,04,28,02,31,13.60
2015,04,28,02,32,13.60
2015,04,28,02,33,13.60
2015,04,28,02,34,13.60
2015,04,28,02,35,13.60
2015,04,28,02,36,13.60
2015,04,28,02,37,13.60
2015,04,28,02,38,13.70
2015,04,28,02,39,13.70
2015,04,28,02,40,13.70
2015,04,28,02,41,13.70
2015,04,28,02,42,13.70
2015,04,28,02,43,13.70
2015,04,28,02,44,13.70
2015,04,28,02,45,13.80
2015,04,28,02,46,13.80
2015,04,28,02,47,13.80
2015,04,28,02,48,13.80
2015,04,28,02,49,13.80
2015,04,28,02,50,13.80
2015,04,28,02,51,13.80
2015,04,28,02,52,13.80
2015,04,28,02,53,13.80
2015,04,28,02,54,13.80
2015,04,28,02,55,13.70
2015,04,28,02,56,13.70
2015,04,28,02,57,13.70
2015,04,28,02,58,13.70
2015,04,28,02,59,13.70
2015,04,28,03,00,13.70
2015,04,28,03,01,13.60
2015,04,28,03,02,13.60
2015,04,28,03,03,13.60
2015,04,28,03,04,13.50
2015,04,28,03,05,13.50
2015,04,28,03,06,13.50
2015,04,28,03,07,13.40
2015,04,28,03,08,13.40
2015,04,28,03,09,13.40
2015,04,28,03,10,13.30
2015,04,28,03,11,13.30
2015,04,28,03,12,13.30
2015,04,28,03,13,13.30
2015,04,28,03,14,13.30
2015,04,28,03,15,13.20
2015,04,28,03,16,13.20
2015,04,28,03,17,13.10
2015,04,28,03,18,13.00
2015,04,28,03,19,12.90
2015,04,28,03,20,12.90
2015,04,28,03,21,12.80
2015,04,28,03,22,12.80
2015,04,28,03,23,12.70
2015,04,28,03,24,12.60
2015,04,28,03,25,12.60
2015,04,28,03,26,12.50
2015,04,28,03,27,12.50
2015,04,28,03,28,12.40
2015,04,28,03,29,12.40
2015,04,28,03,30,12.40
2015,04,28,03,31,12.40
2015,04,28,03,32,12.40
2015,04,28,03,33,12.40
2015,04,28,03,34,12.40
2015,04,28,03,35,12.30
2015,04,28,03,36,12.30
2015,04,28,03,37,12.30
2015,04,28,03,38,12.30
2015,04,28,03,39,12.20
2015,04,28,03,40,12.20
2015,04,28,03,41,12.20
2015,04,28,03,42,12.10
2015,04,28,03,43,12.10
2015,04,28,03,44,12.10
2015,04,28,03,45,12.10
2015,04,28,03,46,12.00
2015,04,28,03,47,12.00
2015,04,28,03,48,11.90
2015,04,28,03,49,11.90
2015,04,28,03,50,11.90
2015,04,28,03,51,11.80
2015,04,28,03,52,11.80
2015,04,28,03,53,11.80
2015,04,28,03,54,11.80
2015,04,28,03,55,11.70
2015,04,28,03,56,11.70
2015,04,28,03,57,11.70
2015,04,28,03,58,11.70
2015,04,28,03,59,11.70
2015,04,28,04,00,11.70
2015,04,28,04,01,11.70
2015,04,28,04,02,11.70
2015,04,28,04,03,11.70
2015,04,28,04,04,11.70
2015,04,28,04,05,11.70
2015,04,28,04,06,11.60
2015,04,28,04,07,11.60
2015,04,28,04,08,11.60
2015,04,28,04,09,11.60
2015,04,28,04,10,11.60
2015,04,28,04,11,11.60
2015,04,28,04,12,11.60
2015,04,28,04,13,11.60
2015,04,28,04,14,11.60
2015,04,28,04,15,11.60
2015,04,28,04,16,11.50
2015,04,28,04,17,11.50
2015,04,28,04,18,11.40
2015,04,28,04,19,11.40
2015,04,28,04,20,11.40
2015,04,28,04,21,11.40
2015,04,28,04,22,11.30
2015,04,28,04,23,11.30
2015,04,28,04,24,11.20
2015,04,28,04,25,11.20
2015,04,28,04,26,11.10
2015,04,28,04,27,11.00
2015,04,28,04,28,11.00
2015,04,28,04,29,10.90
2015,04,28,04,30,10.90
2015,04,28,04,31,10.80
2015,04,28,04,32,10.80
2015,04,28,04,33,10.80
2015,04,28,04,34,10.70
2015,04,28,04,35,10.70
2015,04,28,04,36,10.60
2015,04,28,04,37,10.50
2015,04,28,04,38,10.40
2015,04,28,04,39,10.40
2015,04,28,04,40,10.30
2015,04,28,04,41,10.20
2015,04,28,04,42,10.20
2015,04,28,04,43,10.10
2015,04,28,04,44,10.00
2015,04,28,04,45,10.00
2015,04,28,04,46,9.90
2015,04,28,04,47,9.90
2015,04,28,04,48,9.80
2015,04,28,04,49,9.80
2015,04,28,04,50,9.70
2015,04,28,04,51,9.60
2015,04,28,04,52,9.50
2015,04,28,04,53,9.50
2015,04,28,04,54,9.40
2015,04,28,04,55,9.40
2015,04,28,04,56,9.30
2015,04,28,04,57,9.20
2015,04,28,04,58,9.10
2015,04,28,04,59,9.10
2015,04,28,05,00,9.00
2015,04,28,05,01,8.90
2015,04,28,05,02,8.80
2015,04,28,05,03,8.80
2015,04,28,05,04,8.70
2015,04,28,05,05,8.60
2015,04,28,05,06,8.60
2015,04,28,05,07,8.50
2015,04,28,05,08,8.50
2015,04,28,05,09,8.40
2015,04,28,05,10,8.40
2015,04,28,05,11,8.40
2015,04,28,05,12,8.40
2015,04,28,05,13,8.30
2015,04,28,05,14,8.30
2015,04,28,05,15,8.30
2015,04,28,05,16,8.30
2015,04,28,05,17,8.30
2015,04,28,05,18,8.20
2015,04,28,05,19,8.20
2015,04,28,05,20,8.20
2015,04,28,05,21,8.20
2015,04,28,05,22,8.10
2015,04,28,05,23,8.10
2015,04,28,05,24,8.10
2015,04,28,05,25,8.10
2015,04,28,05,26,8.00
2015,04,28,05,27,8.00
2015,04,28,05,28,7.90
2015,04,28,05,29,7.90
2015,04,28,05,30,7.90
2015,04,28,05,31,7.80
2015,04,28,05,32,7.80
2015,04,28,05,33,7.80
2015,04,28,05,34,7.90
2015,04,28,05,35,7.90
2015,04,28,05,36,7.90
2015,04,28,05,37,7.90
2015,04,28,05,38,7.80
2015,04,28,05,39,7.80
2015,04,28,05,40,7.80
2015,04,28,05,41,7.80
2015,04,28,05,42,7.80
2015,04,28,05,43,7.80
2015,04,28,05,44,7.80
2015,04,28,05,45,7.80
2015,04,28,05,46,7.80
2015,04,28,05,47,7.70
2015,04,28,05,48,7.70
2015,04,28,05,49,7.70
2015,04,28,05,50,7.60
2015,04,28,05,51,7.60
2015,04,28,05,52,7.60
2015,04,28,05,53,7.60
2015,04,28,05,54,7.50
2015,04,28,05,55,7.50
2015,04,28,05,56,7.50
2015,04,28,05,57,7.40
2015,04,28,05,58,7.40
2015,04,28,05,59,7.40
2015,04,28,06,00,7.40
2015,04,28,06,01,7.40
2015,04,28,06,02,7.40
2015,04,28,06,03,7.40
2015,04,28,06,04,7.40
2015,04,28,06,05,7.30
2015,04,28,06,06,7.30
2015,04,28,06,07,7.30
2015,04,28,06,08,7.30
2015,04,28,06,09,7.30
2015,04,28,06,10,7.20
2015,04,28,06,11,7.20
2015,04,28,06,12,7.10
2015,04,28,06,13,7.10
2015,04,28,06,14,7.10
2015,04,28,06,15,7.00
2015,04,28,06,16,7.00
2015,04,28,06,17,6.90
2015,04,28,06,18,6.90
2015,04,28,06,19,6.90
2015,04,28,06,20,6.80
2015,04,28,06,21,6.80
2015,04,28,06,22,6.80
2015,04,28,06,23,6.70
2015,04,28,06,24,6.70
2015,04,28,06,25,6.70
2015,04,28,06,26,6.70
2015,04,28,06,27,6.70
2015,04,28,06,28,6.70
2015,04,28,06,29,6.60
2015,04,28,06,30,6.60
2015,04,28,06,31,6.60
2015,04,28,06,32,6.60
2015,04,28,06,33,6.60
2015,04,28,06,34,6.60
2015,04,28,06,35,6.60
2015,04,28,06,36,6.60
2015,04,28,06,37,6.60
2015,04,28,06,38,6.60
2015,04,28,06,39,6.60
2015,04,28,06,40,6.60
2015,04,28,06,41,6.60
2015,04,28,06,42,6.50
2015,04,28,06,43,6.50
2015,04,28,06,44,6.50
2015,04,28,06,45,6.50
2015,04,28,06,46,6.50
2015,04,28,06,47,6.50
2015,04,28,06,48,6.40
2015,04,28,06,49,6.40
2015,04,28,06,50,6.40
2015,04,28,06,51,6.40
2015,04,28,06,52,6.40
2015,04,28,06,53,6.50
2015,04,28,06,54,6.50
2015,04,28,06,55,6.40
2015,04,28,06,56,6.40
2015,04,28,06,57,6.40
2015,04,28,06,58,6.40
2015,04,28,06,59,6.40
2015,04,28,07,00,6.40
2015,04,28,07,01,6.40
2015,04,28,07,02,6.40
2015,04,28,07,03,6.40
2015,04,28,07,04,6.40
2015,04,28,07,05,6.40
2015,04,28,07,06,6.40
2015,04,28,07,07,6.40
2015,04,28,07,08,6.40
2015,04,28,07,09,6.40
2015,04,28,07,10,6.30
2015,04,28,07,11,6.30
2015,04,28,07,12,6.30
2015,04,28,07,13,6.30
2015,04,28,07,14,6.30
2015,04,28,07,15,6.30
2015,04,28,07,16,6.30
2015,04,28,07,17,6.30
2015,04,28,07,18,6.40
2015,04,28,07,19,6.40
2015,04,28,07,20,6.30
2015,04,28,07,21,6.30
2015,04,28,07,22,6.30
2015,04,28,07,23,6.30
2015,04,28,07,24,6.30
2015,04,28,07,25,6.20
2015,04,28,07,26,6.20
2015,04,28,07,27,6.20
2015,04,28,07,28,6.20
2015,04,28,07,29,6.20
2015,04,28,07,30,6.20
2015,04,28,07,31,6.20
2015,04,28,07,32,6.20
2015,04,28,07,33,6.10
2015,04,28,07,34,6.20
2015,04,28,07,35,6.10
2015,04,28,07,36,6.10
2015,04,28,07,37,6.10
2015,04,28,07,38,6.10
2015,04,28,07,39,6.10
2015,04,28,07,40,6.10
2015,04,28,07,41,6.10
2015,04,28,07,42,6.10
2015,04,28,07,43,6.10
2015,04,28,07,44,6.10
2015,04,28,07,45,6.10
2015,04,28,07,46,6.20
2015,04,28,07,47,6.20
2015,04,28,07,48,6.20
2015,04,28,07,49,6.20
2015,04,28,07,50,6.20
2015,04,28,07,51,6.20
2015,04,28,07,52,6.20
2015,04,28,07,53,6.20
2015,04,28,07,54,6.20
2015,04,28,07,55,6.20
2015,04,28,07,56,6.20
2015,04,28,07,57,6.20
2015,04,28,07,58,6.30
2015,04,28,07,59,6.30
2015,04,28,08,00,6.30
2015,04,28,08,01,6.30
2015,04,28,08,02,6.30
2015,04,28,08,03,6.30
2015,04,28,08,04,6.30
2015,04,28,08,05,6.30
2015,04,28,08,06,6.30
2015,04,28,08,07,6.30
2015,04,28,08,08,6.30
2015,04,28,08,09,6.40
2015,04,28,08,10,6.40
2015,04,28,08,11,6.40
2015,04,28,08,12,6.40
2015,04,28,08,13,6.50
2015,04,28,08,14,6.50
2015,04,28,08,15,6.50
2015,04,28,08,16,6.50
2015,04,28,08,17,6.50
2015,04,28,08,18,6.50
2015,04,28,08,19,6.60
2015,04,28,08,20,6.60
2015,04,28,08,21,6.60
2015,04,28,08,22,6.60
2015,04,28,08,23,6.70
2015,04,28,08,24,6.70
2015,04,28,08,25,6.70
2015,04,28,08,26,6.70
2015,04,28,08,27,6.80
2015,04,28,08,28,6.80
2015,04,28,08,29,6.80
2015,04,28,08,30,6.90
2015,04,28,08,31,6.90
2015,04,28,08,32,6.90
2015,04,28,08,33,6.90
2015,04,28,08,34,7.00
2015,04,28,08,35,7.10
2015,04,28,08,36,7.10
2015,04,28,08,37,7.10
2015,04,28,08,38,7.20
2015,04,28,08,39,7.20
2015,04,28,08,40,7.20
2015,04,28,08,41,7.20
2015,04,28,08,42,7.30
2015,04,28,08,43,7.30
2015,04,28,08,44,7.40
2015,04,28,08,45,7.40
2015,04,28,08,46,7.50
2015,04,28,08,47,7.60
2015,04,28,08,48,7.60
2015,04,28,08,49,7.70
2015,04,28,08,50,7.70
2015,04,28,08,51,7.80
2015,04,28,08,52,7.80
2015,04,28,08,53,7.90
2015,04,28,08,54,7.90
2015,04,28,08,55,7.90
2015,04,28,08,56,7.90
2015,04,28,08,57,7.90
2015,04,28,08,58,7.90
2015,04,28,08,59,7.90
2015,04,28,09,00,7.90
2015,04,28,09,01,7.90
2015,04,28,09,02,7.90
2015,04,28,09,03,7.90
2015,04,28,09,04,7.90
2015,04,28,09,05,7.90
2015,04,28,09,06,7.80
2015,04,28,09,07,7.80
2015,04,28,09,08,7.80
2015,04,28,09,09,7.80
2015,04,28,09,10,7.80
2015,04,28,09,11,7.80
2015,04,28,09,12,7.80
2015,04,28,09,13,7.80
2015,04,28,09,14,7.80
2015,04,28,09,15,7.80
2015,04,28,09,16,7.80
2015,04,28,09,17,7.80
2015,04,28,09,18,7.80
2015,04,28,09,19,7.80
2015,04,28,09,20,7.80
2015,04,28,09,21,7.80
2015,04,28,09,22,7.80
2015,04,28,09,23,7.80
2015,04,28,09,24,7.80
2015,04,28,09,25,7.80
2015,04,28,09,26,7.80
2015,04,28,09,27,7.80
2015,04,28,09,28,7.80
2015,04,28,09,29,7.80
2015,04,28,09,30,7.80
2015,04,28,09,31,7.80
2015,04,28,09,32,7.80
2015,04,28,09,33,7.90
2015,04,28,09,34,7.90
2015,04,28,09,35,7.90
2015,04,28,09,36,7.90
2015,04,28,09,37,7.90
2015,04,28,09,38,8.00
2015,04,28,09,39,8.00
2015,04,28,09,40,8.00
2015,04,28,09,41,8.10
2015,04,28,09,42,8.10
2015,04,28,09,43,8.10
2015,04,28,09,44,8.10
2015,04,28,09,45,8.20
2015,04,28,09,46,8.20
2015,04,28,09,47,8.20
2015,04,28,09,48,8.20
2015,04,28,09,49,8.30
2015,04,28,09,50,8.30
2015,04,28,09,51,8.30
2015,04,28,09,52,8.40
2015,04,28,09,53,8.40
2015,04,28,09,54,8.50
2015,04,28,09,55,8.60
2015,04,28,09,56,8.70
2015,04,28,09,57,8.80
2015,04,28,09,58,8.90
2015,04,28,09,59,9.00
2015,04,28,10,00,9.10
2015,04,28,10,01,9.20
2015,04,28,10,02,9.20
2015,04,28,10,03,9.30
2015,04,28,10,04,9.30
2015,04,28,10,05,9.40
2015,04,28,10,06,9.40
2015,04,28,10,07,9.50
2015,04,28,10,08,9.60
2015,04,28,10,09,9.60
2015,04,28,10,10,9.70
2015,04,28,10,11,9.80
2015,04,28,10,12,9.90
2015,04,28,10,13,10.00
2015,04,28,10,14,10.20
2015,04,28,10,15,10.30
2015,04,28,10,16,10.40
2015,04,28,10,17,10.40
2015,04,28,10,18,10.50
2015,04,28,10,19,10.50
2015,04,28,10,20,10.40
2015,04,28,10,21,10.40
2015,04,28,10,22,10.40
2015,04,28,10,23,10.40
2015,04,28,10,24,10.40
2015,04,28,10,25,10.40
2015,04,28,10,26,10.40
2015,04,28,10,27,10.50
2015,04,28,10,28,10.50
2015,04,28,10,29,10.50
2015,04,28,10,30,10.50
2015,04,28,10,31,10.50
2015,04,28,10,32,10.50
2015,04,28,10,33,10.50
2015,04,28,10,34,10.60
2015,04,28,10,35,10.60
2015,04,28,10,36,10.60
2015,04,28,10,37,10.60
2015,04,28,10,38,10.60
2015,04,28,10,39,10.60
2015,04,28,10,40,10.60
2015,04,28,10,41,10.60
2015,04,28,10,42,10.70
2015,04,28,10,43,10.70
2015,04,28,10,44,10.70
2015,04,28,10,45,10.70
2015,04,28,10,46,10.70
2015,04,28,10,47,10.70
2015,04,28,10,48,10.70
2015,04,28,10,49,10.70
2015,04,28,10,50,10.70
2015,04,28,10,51,10.70
2015,04,28,10,52,10.70
2015,04,28,10,53,10.70
2015,04,28,10,54,10.60
2015,04,28,10,55,10.60
2015,04,28,10,56,10.60
2015,04,28,10,57,10.60
2015,04,28,10,58,10.60
2015,04,28,10,59,10.70
2015,04,28,11,00,10.70
2015,04,28,11,01,10.70
2015,04,28,11,02,10.80
2015,04,28,11,03,10.90
2015,04,28,11,04,10.90
2015,04,28,11,05,10.90
2015,04,28,11,06,10.80
2015,04,28,11,07,10.80
2015,04,28,11,08,10.80
2015,04,28,11,09,10.70
2015,04,28,11,10,10.60
2015,04,28,11,11,10.60
2015,04,28,11,12,10.50
2015,04,28,11,13,10.50
2015,04,28,11,14,10.50
2015,04,28,11,15,10.50
2015,04,28,11,16,10.50
2015,04,28,11,17,10.50
2015,04,28,11,18,10.50
2015,04,28,11,19,10.50
2015,04,28,11,20,10.50
2015,04,28,11,21,10.50
2015,04,28,11,22,10.50
2015,04,28,11,23,10.60
2015,04,28,11,24,10.60
2015,04,28,11,25,10.60
2015,04,28,11,26,10.60
2015,04,28,11,27,10.50
2015,04,28,11,28,10.50
2015,04,28,11,29,10.40
2015,04,28,11,30,10.40
2015,04,28,11,31,10.40
2015,04,28,11,32,10.30
2015,04,28,11,33,10.20
2015,04,28,11,34,10.20
2015,04,28,11,35,10.10
2015,04,28,11,36,10.00
2015,04,28,11,37,9.90
2015,04,28,11,38,9.80
2015,04,28,11,39,9.80
2015,04,28,11,40,9.70
2015,04,28,11,41,9.70
2015,04,28,11,42,9.80
2015,04,28,11,43,9.90
2015,04,28,11,44,10.00
2015,04,28,11,45,10.10
2015,04,28,11,46,10.20
2015,04,28,11,47,10.30
2015,04,28,11,48,10.40
2015,04,28,11,49,10.50
2015,04,28,11,50,10.60
2015,04,28,11,51,10.70
2015,04,28,11,52,10.80
2015,04,28,11,53,10.90
2015,04,28,11,54,11.00
2015,04,28,11,55,11.10
2015,04,28,11,56,11.20
2015,04,28,11,57,11.20
2015,04,28,11,58,11.30
2015,04,28,11,59,11.30
2015,04,28,12,00,11.30
2015,04,28,12,01,11.30
2015,04,28,12,02,11.30
2015,04,28,12,03,11.40
2015,04,28,12,04,11.30
2015,04,28,12,05,11.40
2015,04,28,12,06,11.40
2015,04,28,12,07,11.40
2015,04,28,12,08,11.40
2015,04,28,12,09,11.50
2015,04,28,12,10,11.60
2015,04,28,12,11,11.70
2015,04,28,12,12,11.80
2015,04,28,12,13,11.80
2015,04,28,12,14,11.80
2015,04,28,12,15,11.80
2015,04,28,12,16,11.90
2015,04,28,12,17,11.90
2015,04,28,12,18,12.00
2015,04,28,12,19,12.00
2015,04,28,12,20,12.00
2015,04,28,12,21,12.00
2015,04,28,12,22,12.00
2015,04,28,12,23,12.10
2015,04,28,12,24,12.10
2015,04,28,12,25,12.10
2015,04,28,12,26,12.10
2015,04,28,12,27,12.00
2015,04,28,12,28,11.90
2015,04,28,12,29,11.90
2015,04,28,12,30,11.80
2015,04,28,12,31,11.80
2015,04,28,12,32,11.80
2015,04,28,12,33,11.80
2015,04,28,12,34,11.80
2015,04,28,12,35,11.80
2015,04,28,12,36,11.80
2015,04,28,12,37,11.80
2015,04,28,12,38,11.80
2015,04,28,12,39,11.80
2015,04,28,12,40,11.70
2015,04,28,12,41,11.70
2015,04,28,12,42,11.70
2015,04,28,12,43,11.70
2015,04,28,12,44,11.70
2015,04,28,12,45,11.70
2015,04,28,12,46,11.70
2015,04,28,12,47,11.70
2015,04,28,12,48,11.60
2015,04,28,12,49,11.60
2015,04,28,12,50,11.60
2015,04,28,12,51,11.50
2015,04,28,12,52,11.50
2015,04,28,12,53,11.50
2015,04,28,12,54,11.50
2015,04,28,12,55,11.50
2015,04,28,12,56,11.60
2015,04,28,12,57,11.60
2015,04,28,12,58,11.70
2015,04,28,12,59,11.70
2015,04,28,13,00,11.70
2015,04,28,13,01,11.70
2015,04,28,13,02,11.80
2015,04,28,13,03,11.80
2015,04,28,13,04,11.80
2015,04,28,13,05,11.80
2015,04,28,13,06,11.80
2015,04,28,13,07,11.80
2015,04,28,13,08,11.80
2015,04,28,13,09,11.70
2015,04,28,13,10,11.80
2015,04,28,13,11,11.80
2015,04,28,13,12,11.80
2015,04,28,13,13,11.80
2015,04,28,13,14,11.80
2015,04,28,13,15,11.80
2015,04,28,13,16,11.80
2015,04,28,13,17,11.80
2015,04,28,13,18,11.80
2015,04,28,13,19,11.80
2015,04,28,13,20,11.70
2015,04,28,13,21,11.70
2015,04,28,13,22,11.70
2015,04,28,13,23,11.70
2015,04,28,13,24,11.70
2015,04,28,13,25,11.70
2015,04,28,13,26,11.70
2015,04,28,13,27,11.80
2015,04,28,13,28,11.90
2015,04,28,13,29,12.00
2015,04,28,13,30,12.10
2015,04,28,13,31,12.20
2015,04,28,13,32,12.30
2015,04,28,13,33,12.40
2015,04,28,13,34,12.50
2015,04,28,13,35,12.60
2015,04,28,13,36,12.70
2015,04,28,13,37,12.70
2015,04,28,13,38,12.80
2015,04,28,13,39,12.80
2015,04,28,13,40,12.80
2015,04,28,13,41,12.80
2015,04,28,13,42,12.80
2015,04,28,13,43,12.80
2015,04,28,13,44,12.70
2015,04,28,13,45,12.70
2015,04,28,13,46,12.70
2015,04,28,13,47,12.50
2015,04,28,13,48,12.30
2015,04,28,13,49,12.00
2015,04,28,13,50,11.80
2015,04,28,13,51,11.60
2015,04,28,13,52,11.50
2015,04,28,13,53,11.30
2015,04,28,13,54,11.10
2015,04,28,13,55,10.90
2015,04,28,13,56,10.80
2015,04,28,13,57,10.70
2015,04,28,13,58,10.60
2015,04,28,13,59,10.60
2015,04,28,14,00,10.50
2015,04,28,14,01,10.40
2015,04,28,14,02,10.30
2015,04,28,14,03,10.20
2015,04,28,14,04,10.20
2015,04,28,14,05,10.10
2015,04,28,14,06,9.90
2015,04,28,14,07,9.80
2015,04,28,14,08,9.80
2015,04,28,14,09,9.70
2015,04,28,14,10,9.70
2015,04,28,14,11,9.70
2015,04,28,14,12,9.60
2015,04,28,14,13,9.60
2015,04,28,14,14,9.50
2015,04,28,14,15,9.50
2015,04,28,14,16,9.40
2015,04,28,14,17,9.40
2015,04,28,14,18,9.30
2015,04,28,14,19,9.30
2015,04,28,14,20,9.30
2015,04,28,14,21,9.30
2015,04,28,14,22,9.30
2015,04,28,14,23,9.20
2015,04,28,14,24,9.30
2015,04,28,14,25,9.30
2015,04,28,14,26,9.30
2015,04,28,14,27,9.20
2015,04,28,14,28,9.20
2015,04,28,14,29,9.20
2015,04,28,14,30,9.20
2015,04,28,14,31,9.30
2015,04,28,14,32,9.30
2015,04,28,14,33,9.20
2015,04,28,14,34,9.20
2015,04,28,14,35,9.20
2015,04,28,14,36,9.20
2015,04,28,14,37,9.30
2015,04,28,14,38,9.30
2015,04,28,14,39,9.30
2015,04,28,14,40,9.40
2015,04,28,14,41,9.40
2015,04,28,14,42,9.40
2015,04,28,14,43,9.40
2015,04,28,14,44,9.50
2015,04,28,14,45,9.50
2015,04,28,14,46,9.60
2015,04,28,14,47,9.60
2015,04,28,14,48,9.70
2015,04,28,14,49,9.80
2015,04,28,14,50,9.90
2015,04,28,14,51,9.90
2015,04,28,14,52,10.00
2015,04,28,14,53,10.00
2015,04,28,14,54,10.00
2015,04,28,14,55,10.00
2015,04,28,14,56,10.00
2015,04,28,14,57,10.00
2015,04,28,14,58,10.00
2015,04,28,14,59,10.00
2015,04,28,15,00,10.10
2015,04,28,15,01,10.10
2015,04,28,15,02,10.10
2015,04,28,15,03,10.10
2015,04,28,15,04,10.10
2015,04,28,15,05,10.10
2015,04,28,15,06,10.10
2015,04,28,15,07,10.10
2015,04,28,15,08,10.10
2015,04,28,15,09,10.10
2015,04,28,15,10,10.00
2015,04,28,15,11,10.00
2015,04,28,15,12,10.00
2015,04,28,15,13,10.00
2015,04,28,15,14,9.90
2015,04,28,15,15,9.90
2015,04,28,15,16,9.90
2015,04,28,15,17,9.90
2015,04,28,15,18,9.90
2015,04,28,15,19,9.90
2015,04,28,15,20,9.90
2015,04,28,15,21,9.90
2015,04,28,15,22,10.00
2015,04,28,15,23,10.00
2015,04,28,15,24,10.00
2015,04,28,15,25,10.10
2015,04,28,15,26,10.10
2015,04,28,15,27,10.10
2015,04,28,15,28,10.20
2015,04,28,15,29,10.20
2015,04,28,15,30,10.20
2015,04,28,15,31,10.30
2015,04,28,15,32,10.30
2015,04,28,15,33,10.40
2015,04,28,15,34,10.40
2015,04,28,15,35,10.60
2015,04,28,15,36,10.70
2015,04,28,15,37,10.80
2015,04,28,15,38,10.90
2015,04,28,15,39,11.00
2015,04,28,15,40,11.10
2015,04,28,15,41,11.10
2015,04,28,15,42,11.20
2015,04,28,15,43,11.20
2015,04,28,15,44,11.30
2015,04,28,15,45,11.30
2015,04,28,15,46,11.30
2015,04,28,15,47,11.30
2015,04,28,15,48,11.30
2015,04,28,15,49,11.40
2015,04,28,15,50,11.40
2015,04,28,15,51,11.40
2015,04,28,15,52,11.30
2015,04,28,15,53,11.30
2015,04,28,15,54,11.30
2015,04,28,15,55,11.30
2015,04,28,15,56,11.40
2015,04,28,15,57,11.40
2015,04,28,15,58,11.40
2015,04,28,15,59,11.40
2015,04,28,16,00,11.50
2015,04,28,16,01,11.50
2015,04,28,16,02,11.60
2015,04,28,16,03,11.70
2015,04,28,16,04,11.70
2015,04,28,16,05,11.80
2015,04,28,16,06,11.90
2015,04,28,16,07,11.90
2015,04,28,16,08,11.90
2015,04,28,16,09,11.90
2015,04,28,16,10,11.90
2015,04,28,16,11,11.90
2015,04,28,16,12,11.80
2015,04,28,16,13,11.80
2015,04,28,16,14,11.80
2015,04,28,16,15,11.80
2015,04,28,16,16,11.90
2015,04,28,16,17,12.00
2015,04,28,16,18,12.00
2015,04,28,16,19,12.10
2015,04,28,16,20,12.10
2015,04,28,16,21,12.00
2015,04,28,16,22,11.90
2015,04,28,16,23,11.90
2015,04,28,16,24,11.80
2015,04,28,16,25,11.80
2015,04,28,16,26,11.80
2015,04,28,16,27,11.80
2015,04,28,16,28,11.70
2015,04,28,16,29,11.70
2015,04,28,16,30,11.70
2015,04,28,16,31,11.60
2015,04,28,16,32,11.60
2015,04,28,16,33,11.60
2015,04,28,16,34,11.60
2015,04,28,16,35,11.60
2015,04,28,16,36,11.50
2015,04,28,16,37,11.50
2015,04,28,16,38,11.40
2015,04,28,16,39,11.40
2015,04,28,16,40,11.40
2015,04,28,16,41,11.40
2015,04,28,16,42,11.40
2015,04,28,16,43,11.50
2015,04,28,16,44,11.50
2015,04,28,16,45,11.60
2015,04,28,16,46,11.60
2015,04,28,16,47,11.60
2015,04,28,16,48,11.70
2015,04,28,16,49,11.70
2015,04,28,16,50,11.80
2015,04,28,16,51,11.80
2015,04,28,16,52,11.90
2015,04,28,16,53,11.90
2015,04,28,16,54,12.00
2015,04,28,16,55,12.00
2015,04,28,16,56,12.00
2015,04,28,16,57,12.10
2015,04,28,16,58,12.10
2015,04,28,16,59,12.10
2015,04,28,17,00,12.00
2015,04,28,17,01,11.90
2015,04,28,17,02,11.80
2015,04,28,17,03,11.70
2015,04,28,17,04,11.60
2015,04,28,17,05,11.60
2015,04,28,17,06,11.50
2015,04,28,17,07,11.40
2015,04,28,17,08,11.40
2015,04,28,17,09,11.40
2015,04,28,17,10,11.30
2015,04,28,17,11,11.30
2015,04,28,17,12,11.30
2015,04,28,17,13,11.30
2015,04,28,17,14,11.30
2015,04,28,17,15,11.30
2015,04,28,17,16,11.30
2015,04,28,17,17,11.30
2015,04,28,17,18,11.30
2015,04,28,17,19,11.40
2015,04,28,17,20,11.40
2015,04,28,17,21,11.40
2015,04,28,17,22,11.50
2015,04,28,17,23,11.50
2015,04,28,17,24,11.40
2015,04,28,17,25,11.30
2015,04,28,17,26,11.30
2015,04,28,17,27,11.30
2015,04,28,17,28,11.20
2015,04,28,17,29,11.20
2015,04,28,17,30,11.20
2015,04,28,17,31,11.20
2015,04,28,17,32,11.20
2015,04,28,17,33,11.20
2015,04,28,17,34,11.10
2015,04,28,17,35,11.10
2015,04,28,17,36,11.00